[[{"header":{"parameterUnit":"m.s-1","parameterCategory":1,"la1":30.2991,"la2":30.254,"lo1":-89.0895,"lo2":-89.0444,"dy":0.0017,"dx":0.0017,"nx":28,"ny":28,"refTime":"2024-03-11T03:00:00:Z","depth":0,"parameterNumber":2,"parameterNumberName":"U-component_of_WINDS"},"data":[0,0,0,0,0,0,0,0,0,0,0,0,0,0,0,0,0,0,0,0,0,0,0,0,0,0,0,0,0,0,0,0,0,0,0,0,0,0,0,0,0,0,0,0,0,0,0,0,0,0,0,0,0,0,0,0,0,0,-4.7667,-4.7667,0,-4.7718,-4.7718,-4.7719,-4.7615,-4.7611,-4.7608,-4.7605,-4.7658,-4.7662,-4.7667,0,0,0,0,0,0,0,0,0,0,0,0,0,-4.7481,-4.7485,-4.7667,-4.7667,-4.7668,-4.7718,-4.7718,-4.7719,-4.7615,-4.7611,-4.7607,-4.7603,-4.7656,-4.7662,-4.7667,0,0,0,0,0,0,0,0,0,0,0,0,0,-4.755,-4.7487,-4.7667,-4.7622,-4.7619,-4.7718,-4.7718,-4.7719,-4.7616,-4.7611,-4.7606,-4.7601,-4.7655,-4.7661,-4.7668,-4.7813,0,0,-4.7689,-4.7692,0,0,0,0,0,0,0,0,-4.7546,-4.7557,-4.7628,-4.7625,-4.7622,-4.7655,-4.7672,-4.7751,-4.7617,-4.7617,-4.7604,-4.7599,-4.7661,-4.7667,-4.7688,-4.7815,-4.7818,-4.769,-4.7694,-4.7697,-4.7699,0,0,0,0,0,0,0,-4.7542,-4.7554,-4.7687,-4.7629,-4.7625,-4.76,-4.7604,-4.7687,-4.7667,-4.7617,-4.7609,-4.7617,-4.7658,-4.7681,-4.7688,-4.7818,-4.769,-4.7696,-4.77,-4.7703,-4.8069,-4.8074,0,0,0,0,0,0,-4.7542,-4.7551,-4.7685,-4.7688,-4.7571,-4.7608,-4.7612,-4.7649,-4.7666,-4.7664,-4.7621,-4.7612,-4.7672,-4.768,-4.769,-4.7862,-4.7697,-4.7703,-4.7707,-4.8064,-4.807,-4.8076,0,0,0,0,0,0,-4.7539,-4.7555,-4.7683,-4.7618,-4.7632,-4.7616,-4.7659,-4.7653,-4.7676,-4.7669,-4.7665,-4.7648,-4.7668,-4.768,-4.7783,-4.7862,-4.7706,-4.7713,-4.8057,-4.8066,-4.8073,-4.8206,0,0,0,0,0,0,-4.7534,-4.7555,-4.7609,-4.762,-4.7636,-4.7776,-4.7663,-4.7658,-4.7688,-4.7676,-4.7694,-4.7692,-4.7665,-4.7774,-4.779,-4.7869,-4.7718,-4.805,-4.8061,-4.8071,-4.8195,-4.8218,-4.8238,0,0,0,0,0,-4.7528,-4.7644,-4.7612,-4.7629,-4.7704,-4.7781,-4.779,-4.7757,-4.7695,-4.775,-4.7746,-4.7691,-4.7851,-4.7785,-4.7803,-4.7885,-4.8045,-4.8058,-4.807,-4.8185,-4.8213,-4.8237,0,0,0,0,0,0,-4.7643,-4.7645,-4.7609,-4.7733,-4.7758,-4.7763,-4.7831,-4.7788,-4.7831,-4.7818,-4.7776,-4.7781,-4.7893,-4.7898,-4.7826,-4.8026,-4.7937,-4.7954,-4.8019,-4.8046,-4.8067,-4.8063,-4.7724,0,0,0,0,0,-4.7683,-4.7745,-4.7743,-4.7852,-4.7866,-4.7847,-4.7879,-4.7852,-4.7876,-4.7886,-4.7889,-4.7914,-4.797,-4.8008,-4.8059,-4.8195,-4.8198,-4.826,-4.8281,-4.8299,-4.8315,-4.8388,-4.8416,-4.8118,-4.8118,-4.8117,0,0,-4.7766,-4.7774,-4.7816,-4.7876,-4.7891,-4.7957,-4.7856,-4.793,-4.7979,-4.7897,-4.7995,-4.7998,-4.8024,-4.8145,-4.8198,-4.8153,-4.8398,-4.8315,-4.833,-4.8335,-4.8404,-4.8433,-4.8458,-4.8126,-4.8125,-4.8123,0,0,-4.7951,-4.7963,-4.8056,-4.8074,-4.8099,-4.8086,-4.8109,-4.8121,-4.812,-4.8218,-4.8158,-4.8216,-4.8313,-4.8334,-4.8358,-4.8553,-4.8505,-4.857,-4.8684,-4.8756,-4.878,-4.88,-4.8871,-4.8897,-4.8585,-4.8586,-4.8586,0,-4.8051,-4.8147,-4.8109,-4.8188,-4.8216,-4.8145,-4.824,-4.8259,-4.83,-4.8322,-4.8271,-4.8392,-4.8404,-4.853,-4.8578,-4.8599,-4.8624,-4.8568,-4.8779,-4.88,-4.8819,-4.8886,-4.8912,-4.8594,-4.8593,-4.8592,-4.8591,0,-4.827,-4.8338,-4.841,-4.8451,-4.8488,-4.8574,-4.855,-4.8592,-4.8562,-4.8554,-4.8655,-4.8668,-4.8721,-4.8748,-4.8719,-4.887,-4.8842,-4.8786,-4.8696,-4.8856,-4.8918,-4.8943,-4.8605,-4.8602,-4.86,-4.8598,0,0,-4.8528,-4.8549,-4.8576,-4.8595,-4.8618,-4.867,-4.8754,-4.8805,-4.8843,-4.8874,-4.8943,-4.9028,-4.8976,-4.9003,-4.8976,-4.904,-4.9196,-4.8976,-4.8976,-4.9018,-4.9365,-4.9407,-4.9438,-4.9164,-4.9168,-4.9172,-4.9363,0,-4.8713,-4.8856,-4.8825,-4.8966,-4.9029,-4.8963,-4.9036,-4.9059,-4.9055,-4.9108,-4.9102,-4.9164,-4.9091,-4.9107,-4.9167,-4.9164,-4.9265,-4.915,-4.9229,-4.9233,-4.9226,-4.947,-4.9515,-4.9694,-4.9387,-4.9391,-4.9394,0,-4.8946,-4.8987,-4.9135,-4.9149,-4.9174,-4.9241,-4.9286,-4.9338,-4.9363,-4.9355,-4.9386,-4.9347,-4.9431,-4.934,-4.9455,-4.9378,-4.9409,-4.9412,-4.9419,-4.9425,-4.9324,-4.9485,-4.975,-4.9778,-4.9432,-4.9429,-4.9426,0,-4.9122,-4.9213,-4.9314,-4.9332,-4.9351,-4.9399,-4.9409,-4.9429,-4.9463,-4.9503,-4.9525,-4.9574,-4.9602,-4.9642,-4.9618,-4.9553,-4.9738,-4.9644,-4.9735,-4.9736,-4.9778,-4.9776,-5.0054,-4.9796,-4.9796,-4.9796,-4.9795,0,-4.9332,-4.9425,-4.9393,-4.9455,-4.9558,-4.9522,-4.9625,-4.9628,-4.9647,-4.9709,-4.9654,-4.9714,-4.9678,-4.9735,-4.9717,-4.9817,-4.9829,-4.9826,-4.982,-4.9832,-4.9832,-4.9852,-4.9839,-4.9803,-4.9801,-4.98,-4.9798,0,-4.9546,-4.9528,-4.9633,-4.9643,-4.9648,-4.9724,-4.9732,-4.979,-4.9782,-4.9861,-4.9878,-4.9865,-4.993,-4.991,-4.9979,-4.9967,-5.0094,-5.0071,-5.0085,-5.008,-5.0173,-5.0165,-5.0474,-5.0513,-5.023,-5.0232,-5.0235,0,-4.9681,-4.9751,-4.9769,-4.9807,-4.9821,-4.9882,-4.9916,-4.9884,-4.9922,-4.9957,-5.0011,-5.0071,-5.0117,-5.0224,-5.0221,-5.0274,-5.0253,-5.0358,-5.0261,-5.0271,-5.0257,-5.0253,-5.0261,-5.0378,-5.0381,-5.0384,-5.0386,0,-4.9924,-4.9912,-4.9963,-5.0012,-5.0055,-5.0092,-5.0124,-5.0158,-5.0128,-5.0173,-5.0239,-5.0275,-5.0346,-5.0407,-5.0455,-5.0466,-5.0422,-5.0416,-5.044,-5.0453,-5.0459,-5.0458,-5.0139,-5.0409,-5.0407,-5.0405,-5.0404,-5.0403,-5.0103,-5.0163,-5.0185,-5.0245,-5.0266,-5.0297,-5.0353,-5.0352,-5.0406,-5.0461,-5.0439,-5.0515,-5.0539,-5.06,-5.0618,-5.0677,-5.0637,-5.0672,-5.068,-5.069,-5.0702,-5.0449,-5.0686,-5.0685,-5.0684,-5.0684,-5.0683,0,-5.0344,-5.0355,-5.041,-5.0457,-5.0504,-5.0458,-5.0492,-5.0535,-5.0602,-5.0628,-5.0675,-5.0751,-5.081,-5.0812,-5.0868,-5.0915,-5.0896,-5.093,-5.0927,-5.0931,-5.0734,-5.0708,-5.0945,-5.0945,-5.0945,-5.0945,-5.0945,-5.0945,-5.0475,-5.0574,-5.0565,-5.0675,-5.0686,-5.0759,-5.0783,-5.0812,-5.0833,-5.0921,-5.0969,-5.097,-5.0988,-5.1044,-5.1097,-5.1096,-5.1119,-5.1162,-5.1154,-5.097,-5.0944,-5.092,-5.0895,-5.1167,-5.1167,-5.1345,-5.1347,-5.1348]},{"header":{"parameterUnit":"m.s-1","parameterCategory":1,"la1":30.2991,"la2":30.254,"lo1":-89.0895,"lo2":-89.0444,"dy":0.0017,"dx":0.0017,"nx":28,"ny":28,"refTime":"2024-03-11T03:00:00:Z","depth":0,"parameterNumber":3,"parameterNumberName":"V-component_of_WINDS"},"data":[0,0,0,0,0,0,0,0,0,0,0,0,0,0,0,0,0,0,0,0,0,0,0,0,0,0,0,0,0,0,0,0,0,0,0,0,0,0,0,0,0,0,0,0,0,0,0,0,0,0,0,0,0,0,0,0,0,0,-1.9841,-1.9841,0,-1.9813,-1.9812,-1.9812,-1.9767,-1.9766,-1.9766,-1.9765,-1.9736,-1.9736,-1.9736,0,0,0,0,0,0,0,0,0,0,0,0,0,-1.9856,-1.9856,-1.9841,-1.9841,-1.984,-1.9813,-1.9812,-1.9812,-1.9767,-1.9766,-1.9765,-1.9764,-1.9736,-1.9736,-1.9736,0,0,0,0,0,0,0,0,0,0,0,0,0,-1.9841,-1.9856,-1.9841,-1.9815,-1.9812,-1.9813,-1.9812,-1.9812,-1.9768,-1.9766,-1.9765,-1.9764,-1.9736,-1.9736,-1.9736,-1.9761,0,0,-1.9736,-1.9736,0,0,0,0,0,0,0,0,-1.9842,-1.984,-1.9819,-1.9816,-1.9814,-1.9792,-1.9807,-1.9795,-1.9768,-1.9784,-1.9765,-1.9763,-1.9756,-1.9754,-1.9752,-1.9759,-1.9758,-1.9736,-1.9736,-1.9736,-1.9736,0,0,0,0,0,0,0,-1.9843,-1.9841,-1.983,-1.9819,-1.9815,-1.9804,-1.9801,-1.9805,-1.9777,-1.9783,-1.978,-1.9777,-1.9754,-1.9752,-1.9751,-1.9758,-1.9736,-1.9736,-1.9736,-1.9736,-1.9782,-1.9784,0,0,0,0,0,0,-1.9848,-1.9843,-1.9831,-1.9829,-1.9825,-1.9805,-1.9801,-1.98,-1.9777,-1.9773,-1.9778,-1.9775,-1.9752,-1.9751,-1.975,-1.9775,-1.9736,-1.9736,-1.9736,-1.9781,-1.9783,-1.9784,0,0,0,0,0,0,-1.9848,-1.9847,-1.9832,-1.9835,-1.9832,-1.9806,-1.9806,-1.98,-1.9798,-1.9773,-1.9768,-1.978,-1.9751,-1.975,-1.9758,-1.9774,-1.9736,-1.9736,-1.978,-1.9782,-1.9783,-1.9828,0,0,0,0,0,0,-1.9849,-1.9848,-1.9857,-1.9835,-1.9832,-1.9841,-1.9806,-1.9801,-1.9798,-1.9794,-1.9774,-1.977,-1.975,-1.9758,-1.9758,-1.9773,-1.9736,-1.9778,-1.9781,-1.9783,-1.9825,-1.9831,-1.9836,0,0,0,0,0,-1.985,-1.9871,-1.9858,-1.9856,-1.9843,-1.9842,-1.984,-1.9817,-1.9799,-1.9808,-1.9792,-1.9771,-1.9772,-1.9759,-1.9759,-1.9774,-1.9777,-1.978,-1.9783,-1.9822,-1.983,-1.9836,0,0,0,0,0,0,-1.9896,-1.9868,-1.9853,-1.9868,-1.9857,-1.9834,-1.9845,-1.9826,-1.982,-1.9817,-1.9788,-1.9784,-1.9796,-1.9786,-1.9772,-1.9796,-1.9771,-1.9774,-1.9802,-1.9809,-1.9814,-1.9816,-1.9736,0,0,0,0,0,-1.9908,-1.9909,-1.9885,-1.99,-1.9896,-1.9871,-1.987,-1.9853,-1.9841,-1.9837,-1.9822,-1.9811,-1.9809,-1.9808,-1.9805,-1.9823,-1.9818,-1.9833,-1.9839,-1.9844,-1.9847,-1.9854,-1.986,-1.9793,-1.9793,-1.9793,0,0,-1.9932,-1.9917,-1.992,-1.9909,-1.9899,-1.9901,-1.9868,-1.9872,-1.9873,-1.9837,-1.9844,-1.9832,-1.9819,-1.9832,-1.9837,-1.9824,-1.9864,-1.9847,-1.9852,-1.9851,-1.9857,-1.9864,-1.987,-1.9795,-1.9794,-1.9794,0,0,-1.9978,-1.9967,-1.9978,-1.9969,-1.9954,-1.9937,-1.994,-1.9919,-1.991,-1.9916,-1.9889,-1.989,-1.9887,-1.9878,-1.9873,-1.9914,-1.9894,-1.9914,-1.9944,-1.9951,-1.9956,-1.9961,-1.9974,-1.998,-1.9917,-1.9917,-1.9917,0,-2.0011,-2.0012,-1.9987,-1.9991,-1.9987,-1.9954,-1.9965,-1.9957,-1.9942,-1.994,-1.9925,-1.992,-1.9909,-1.9919,-1.9928,-1.9926,-1.9928,-1.9916,-1.9958,-1.9962,-1.9966,-1.9978,-1.9984,-1.9919,-1.9919,-1.9919,-1.9918,0,-2.0053,-2.0054,-2.0065,-2.005,-2.0047,-2.0055,-2.003,-2.003,-2.0013,-1.9997,-2.0003,-1.9988,-1.9981,-1.9982,-1.9966,-1.9989,-1.9981,-1.9963,-1.9938,-1.9975,-1.9986,-1.9991,-1.9923,-1.9922,-1.9921,-1.992,0,0,-2.0127,-2.0097,-2.0102,-2.0094,-2.0074,-2.0075,-2.0081,-2.0073,-2.0073,-2.0064,-2.0067,-2.0065,-2.0048,-2.0042,-2.0024,-2.0031,-2.0063,-2.0011,-2.0011,-2.0021,-2.0086,-2.01,-2.0106,-2.0049,-2.005,-2.0051,-2.0087,0,-2.0168,-2.0177,-2.0153,-2.0167,-2.0167,-2.0136,-2.0141,-2.0129,-2.0115,-2.0113,-2.0097,-2.0096,-2.0073,-2.0069,-2.0074,-2.0058,-2.0075,-2.0055,-2.0052,-2.0052,-2.0056,-2.0112,-2.0126,-2.0162,-2.0091,-2.0092,-2.0093,0,-2.0217,-2.021,-2.0224,-2.0202,-2.0201,-2.0206,-2.0196,-2.0195,-2.0181,-2.017,-2.0163,-2.0142,-2.0146,-2.0122,-2.0126,-2.0113,-2.011,-2.0101,-2.0102,-2.0101,-2.0074,-2.0111,-2.0172,-2.0177,-2.01,-2.0099,-2.0098,0,-2.0269,-2.0262,-2.0269,-2.0264,-2.0239,-2.0243,-2.0233,-2.0217,-2.0214,-2.0205,-2.0202,-2.0195,-2.0191,-2.0185,-2.0162,-2.0147,-2.0169,-2.0143,-2.0159,-2.016,-2.0165,-2.0165,-2.0226,-2.0164,-2.0164,-2.0164,-2.0164,0,-2.0317,-2.0327,-2.0292,-2.0296,-2.0306,-2.0278,-2.0288,-2.0275,-2.0261,-2.0262,-2.0235,-2.0236,-2.0206,-2.0204,-2.0186,-2.0191,-2.019,-2.0181,-2.0176,-2.0183,-2.0184,-2.018,-2.0177,-2.0165,-2.0165,-2.0165,-2.0165,0,-2.0376,-2.0354,-2.0359,-2.0335,-2.0329,-2.0337,-2.0316,-2.0318,-2.0302,-2.0303,-2.0302,-2.0276,-2.0272,-2.0248,-2.0239,-2.0227,-2.0239,-2.0229,-2.0243,-2.024,-2.0257,-2.0255,-2.0317,-2.0324,-2.0259,-2.026,-2.026,0,-2.0408,-2.0415,-2.0391,-2.0389,-2.038,-2.0378,-2.0374,-2.0347,-2.0343,-2.0327,-2.0331,-2.0325,-2.0318,-2.0313,-2.0293,-2.0286,-2.0276,-2.0298,-2.0274,-2.0281,-2.0275,-2.0274,-2.0274,-2.0303,-2.0304,-2.0304,-2.0305,0,-2.0467,-2.0455,-2.045,-2.044,-2.0436,-2.0428,-2.0417,-2.0418,-2.0387,-2.0385,-2.038,-2.0375,-2.0365,-2.0359,-2.0347,-2.0337,-2.0316,-2.0312,-2.0315,-2.0322,-2.033,-2.0325,-2.0256,-2.0311,-2.031,-2.031,-2.031,-2.0309,-2.0513,-2.0516,-2.05,-2.0494,-2.0484,-2.0475,-2.0475,-2.0459,-2.0454,-2.0443,-2.0428,-2.0425,-2.0409,-2.0392,-2.0383,-2.038,-2.0368,-2.0372,-2.0373,-2.0375,-2.0378,-2.0331,-2.0378,-2.0377,-2.0377,-2.0377,-2.0377,0,-2.0569,-2.0556,-2.0552,-2.0538,-2.0534,-2.0514,-2.0501,-2.0499,-2.0496,-2.0484,-2.0477,-2.0471,-2.0464,-2.0444,-2.0435,-2.0436,-2.0426,-2.0435,-2.0434,-2.0432,-2.039,-2.0388,-2.0443,-2.0443,-2.0443,-2.0443,-2.0443,-2.0443,-2.0598,-2.0602,-2.0588,-2.0587,-2.0574,-2.0571,-2.0565,-2.0556,-2.0545,-2.054,-2.0534,-2.052,-2.0504,-2.0493,-2.0486,-2.048,-2.0478,-2.0489,-2.048,-2.0441,-2.0435,-2.0429,-2.0427,-2.0489,-2.0489,-2.0522,-2.0523,-2.0523]}]]